Location: W�rzburg
(49.7529°N, 9.8822°E)
Time: 04:57:43
(UTC+01:00)

Envisat - Visible Passes

Search period start: 19 February 2018 00:00
Search period end: 01 March 2018 00:00
Orbit: 764 x 766 km, 98.2° (Epoch: 18 February)

Date Brightness Start Highest point End Pass type
(mag) Time Alt. Az. Time Alt. Az. Time Alt. Az.
19 Feb 2.9 19:29:56 10° SSE 19:35:00 77° ENE 19:40:06 10° NNW visible
19 Feb 5.6 21:11:24 10° SW 21:14:37 17° W 21:17:51 10° NW visible
20 Feb 3.4 18:53:43 10° SE 18:58:25 39° ENE 19:03:09 10° N visible
20 Feb 4.6 20:32:57 10° SSW 20:37:30 33° W 20:42:06 10° NNW visible
21 Feb 4.2 18:18:13 10° ESE 18:22:01 22° ENE 18:25:50 10° N visible
21 Feb 3.3 19:55:33 10° S 20:00:36 66° WSW 20:05:41 10° NNW visible
22 Feb 3.0 19:18:52 10° SSE 19:23:53 63° ENE 19:28:55 10° N visible
22 Feb 5.4 20:59:36 10° SW 21:03:21 20° W 21:07:07 10° NW visible
23 Feb 3.7 18:42:51 10° SE 18:47:21 33° ENE 18:51:52 10° N visible
23 Feb 4.2 20:21:32 10° SSW 20:26:17 40° W 20:31:06 10° NNW visible
24 Feb 3.0 19:44:22 10° SSE 19:49:27 81° WSW 19:54:34 10° NNW visible
24 Feb 5.9 21:27:14 10° WSW 21:29:18 12° W 21:31:23 10° WNW visible
25 Feb 3.1 19:07:53 10° SE 19:12:47 52° ENE 19:17:43 10° N visible
25 Feb 5.1 20:47:56 10° SSW 20:52:06 25° W 20:56:16 10° NW visible
26 Feb 3.9 18:32:04 10° ESE 18:36:19 28° ENE 18:40:34 10° N visible
26 Feb 3.9 20:10:11 10° S 20:15:06 49° W 20:20:04 10° NNW visible
27 Feb 2.9 19:33:13 10° SSE 19:38:18 83° ENE 19:43:26 10° NNW visible
27 Feb 5.7 21:15:03 10° WSW 21:18:00 15° W 21:20:58 10° NW visible
28 Feb 3.4 18:56:56 10° SE 19:01:42 43° ENE 19:06:30 10° N visible
28 Feb 4.8 20:36:24 10° SSW 20:40:52 30° W 20:45:21 10° NNW visible
